This demonstration page uses our WeatherBlox Daily Observations layout. Learn more.

Left ArrowRight Arrow

38.89511, -77.03637

Hourly Observations for November 2, 2015

Temp ( °F °C ) Dew Point ( °F °C ) Humidity (%) Winds ( mph kmh ) Pressure ( in mb ) Visibility ( mi km ) Precip ( " mm )
12:52 am 00:52 Cloudy 56 13.3 55 12.8 97 97 N N/A 30.06 1018 7 11 N/A
1:52 am 01:52 Cloudy 57 13.9 55 12.8 93 93 N N/A 30.05 1018 8 13 N/A
2:52 am 02:52 Cloudy 55 12.8 54 12.2 96 96 N 5 7 30.05 1018 10 16 N/A
3:52 am 03:52 Cloudy 56 13.3 52 11.1 87 87 N 5 7 30.05 1018 10 16 N/A
4:52 am 04:52 Cloudy 57 13.9 51 10.6 81 81 NE 3 6 30.06 1018 10 16 N/A
5:52 am 05:52 Cloudy 57 13.9 50 10 78 78 NNW 3 6 30.07 1018 10 16 N/A
6:52 am 06:52 Cloudy 57 13.9 53 11.7 87 87 N N/A 30.08 1019 10 16 N/A
7:52 am 07:52 Cloudy 58 14.4 53 11.7 84 84 N N/A 30.11 1020 10 16 N/A
8:52 am 08:52 Cloudy 58 14.4 54 12.2 87 87 E 3 6 30.12 1020 10 16 N/A
9:52 am 09:52 Cloudy 59 15 54 12.2 83 83 N N/A 30.14 1021 10 16 N/A
10:52 am 10:52 Cloudy 62 16.7 52 11.1 70 70 N N/A 30.11 1020 10 16 N/A
11:52 am 11:52 Cloudy 64 17.8 52 11.1 65 65 NNE 3 6 30.10 1019 10 16 N/A
12:52 pm 12:52 Cloudy 65 18.3 50 10 59 59 N N/A 30.10 1019 10 16 N/A
1:52 pm 13:52 Cloudy 66 18.9 49 9.4 54 54 N N/A 30.08 1019 10 16 N/A
2:52 pm 14:52 Mostly Cloudy 64 17.8 50 10 60 60 N N/A 30.09 1019 10 16 N/A
3:52 pm 15:52 Mostly Cloudy 64 17.8 49 9.4 58 58 N N/A 30.09 1019 10 16 N/A
4:52 pm 16:52 Mostly Cloudy 63 17.2 49 9.4 60 60 N N/A 30.10 1019 10 16 N/A
5:52 pm 17:52 Partly Cloudy 59 15 51 10.6 75 75 N N/A 30.11 1020 10 16 N/A
6:52 pm 18:52 Partly Cloudy 58 14.4 52 11.1 81 81 S 3 6 30.13 1020 10 16 N/A
7:52 pm 19:52 Partly Cloudy 56 13.3 52 11.1 87 87 S 3 6 30.15 1021 10 16 N/A
8:52 pm 20:52 Mostly Cloudy 55 12.8 52 11.1 90 90 N N/A 30.15 1021 10 16 N/A
9:52 pm 21:52 Mostly Cloudy 54 12.2 52 11.1 93 93 N 3 6 30.15 1021 10 16 N/A
10:52 pm 22:52 Mostly Cloudy 52 11.1 50 10 93 93 N N/A 30.14 1021 10 16 N/A
11:52 pm 23:52 Partly Cloudy 52 11.1 50 10 93 93 NNE 3 6 30.15 1021 10 16 N/A

Powered by AerisWeather